Weather Roundup
Issued by NWS Chicago, IL

Home | Current Version | Previous Version | Graphics & Text | Print | Product List | Glossary On
Versions: 1 2 3 4 5 6 7 8 9 10 11 12 13 14 15 16 17 18 19 20 21 22 23 24 25 26 27 28 29 30 31 32 33 34 35 36 37 38 39 40 41 42 43 44 45 46 47 48 49 50
000
NZUS59 KLOT 241400
HRRLOT

CHICAGO AREA WEATHER ROUNDUP
NATIONAL WEATHER SERVICE CHICAGO/ROMEOVILLE IL
900 AM CDT THU APR 24 2014

NOTE: "FAIR" INDICATES FEW OR NO CLOUDS BELOW 12,000 FEET WITH NO
SIGNIFICANT WEATHER AND/OR OBSTRUCTIONS TO VISIBILITY.

* THESE STATIONS ARE NOT UNDER NWS QUALITY CONTROL. THEY ALSO MAY NOT
  REPORT WEATHER SUCH AS PRECIPITATION OR FOG.

ILZ005-006-012>014-019>023-241500-
NORTHEAST ILLINOIS

CITY           SKY/WX    TMP DP  RH WIND       PRES   REMARKS
OHARE          CLOUDY    50  36  58 SE15      29.97F
MIDWAY         CLOUDY    52  37  56 SE15G22   29.98F
AURORA         CLOUDY    51  37  58 SE16      29.95F
WAUKEGAN       CLOUDY    44  34  67 E10       29.99F
DUPAGE AIRPORT CLOUDY    51  36  56 SE17      29.95F
WHEELING       CLOUDY    49  36  61 SE13      29.99F
NORTHERLY IS     N/A     48  41  76 SE10        N/A
$$

WIZ051-052-058>065-066-070>072-241500-
SOUTHEAST WISCONSIN

CITY           SKY/WX    TMP DP  RH WIND       PRES   REMARKS
MILWAUKEE      CLOUDY    43  34  70 SE18      30.00F
KENOSHA*       CLOUDY    45  34  65 SE16G22   29.99F
RACINE*        CLOUDY    43  35  73 E17G23    30.01F
WAUKESHA       CLOUDY    39  34  81 E10       29.99F
$$

INZ001>003-010>013-019-020-241500-
NORTHWEST INDIANA

CITY           SKY/WX    TMP DP  RH WIND       PRES   REMARKS
GARY*          CLOUDY    54  36  50 SE12G23   30.01F
MICHIGAN CITY* NOT AVBL
RENSSELAER*    NOT AVBL
VALPARAISO     CLOUDY    52  35  52 SE13G22   30.03F
$$

LMZ740>746-241500-
SOUTHERN LAKE MICHIGAN

STATION/POSITION TIME  SKY/WX   TEMP WIND        PRES    VSBY
                                AIR  DIR/SP/G
                 (UTC)          (F)  (DEG/KT/KT) (MB)    (MI)
HARRISON CRIB    1300            44  110/ 16/ 19   N/A
BURNHAM HARBOR   1400            48  120/  9/ 10   N/A
CALUMET HARBOR   1300            51  130/ 10/ 15 1016.8F
BURNS HARBOR     NOT AVBL
MICHIGAN CITY    1300            51  110/ 14/ 21   N/A
$$

ABBREVIATIONS USED IN REMARKS
   TC - TEMPERATURE IN CELSIUS
  WCI - WIND CHILL INDEX
   HX - HEAT INDEX
  VSB - VISIBILITY
$$



USA.gov is the U.S. government's official web portal to all federal, state and local government web resources and services.